RYR85XP EPKK-EIDW

Flight info

Callsign RYR85XP
Flight time N/A
Altitude 38000
Route OMFOL DCT DINOV DCT NAROX DCT GOBAX DCT PIROT DCT RAVLO Y70 OTBED L60 PENIL UL28 LELDO M145 BAGSO BAGSO3R
Aircraft B38M/M-SDE1FGHILORVWXY/HB1

Departure

Time N/A
Airport Kraków John Paul II International Airport (EPKK)

Arrival

Time 2026-05-07 17:59
Airport Dublin Airport (EIDW)
Time Latitude Longitude Altitude Speed Heading
2026-05-07 16:36 52.35387 7.38462 38083 ft 440 kts 282°
2026-05-07 16:37 52.36879 7.28657 38072 ft 440 kts 282°
2026-05-07 16:37 52.37617 7.23788 37850 ft 440 kts 282°
2026-05-07 16:37 52.38352 7.18920 37516 ft 438 kts 282°
2026-05-07 16:37 52.39073 7.14131 37218 ft 438 kts 282°
2026-05-07 16:38 52.39787 7.09373 36918 ft 438 kts 282°
2026-05-07 16:38 52.40513 7.04526 36620 ft 438 kts 282°
2026-05-07 16:38 52.41237 6.99671 36322 ft 438 kts 282°
2026-05-07 16:38 52.41959 6.94819 36093 ft 437 kts 282°
2026-05-07 16:39 52.42675 6.89989 36047 ft 436 kts 282°
2026-05-07 16:39 52.44102 6.80316 36061 ft 438 kts 282°
2026-05-07 16:40 52.45525 6.70620 36057 ft 437 kts 282°
2026-05-07 16:40 52.46939 6.60920 36058 ft 437 kts 282°
2026-05-07 16:41 52.48333 6.51298 36056 ft 436 kts 282°
2026-05-07 16:41 52.49729 6.41597 36057 ft 436 kts 282°
2026-05-07 16:42 52.51117 6.31901 36054 ft 436 kts 282°
2026-05-07 16:42 52.52495 6.22208 36058 ft 436 kts 281°
2026-05-07 16:43 52.53864 6.12512 36060 ft 436 kts 281°
2026-05-07 16:43 52.55226 6.02809 36062 ft 435 kts 281°
2026-05-07 16:44 52.56569 5.93173 36068 ft 435 kts 281°
2026-05-07 16:44 52.57915 5.83460 36076 ft 435 kts 281°
2026-05-07 16:45 52.59253 5.73740 36073 ft 435 kts 281°
2026-05-07 16:45 52.60581 5.64027 36073 ft 435 kts 281°
2026-05-07 16:46 52.61899 5.54323 36083 ft 434 kts 281°
2026-05-07 16:46 52.63210 5.44606 36075 ft 434 kts 281°
2026-05-07 16:47 52.64512 5.34893 36075 ft 433 kts 281°
2026-05-07 16:47 52.65802 5.25205 36078 ft 433 kts 281°
2026-05-07 16:48 52.67074 5.15588 36079 ft 432 kts 280°
2026-05-07 16:48 52.68343 5.05929 36085 ft 432 kts 281°
2026-05-07 16:49 52.69596 4.96327 36092 ft 431 kts 280°
2026-05-07 16:49 52.70850 4.86649 36095 ft 431 kts 280°
2026-05-07 16:50 52.72095 4.76973 36099 ft 431 kts 280°
2026-05-07 16:50 52.73331 4.67306 36099 ft 430 kts 280°
2026-05-07 16:51 52.74557 4.57647 36096 ft 430 kts 280°
2026-05-07 16:51 52.75776 4.47979 36099 ft 430 kts 280°
2026-05-07 16:52 52.76984 4.38322 36096 ft 429 kts 280°
2026-05-07 16:52 52.78184 4.28668 36098 ft 429 kts 280°
2026-05-07 16:53 52.79369 4.19072 36096 ft 429 kts 280°
2026-05-07 16:53 52.80553 4.09407 36096 ft 428 kts 280°
2026-05-07 16:54 52.81729 3.99736 36099 ft 428 kts 280°
2026-05-07 16:54 52.82896 3.90074 36104 ft 428 kts 280°
2026-05-07 16:55 52.84056 3.80399 36104 ft 428 kts 280°
2026-05-07 16:55 52.85209 3.70730 36103 ft 428 kts 280°
2026-05-07 16:56 52.86346 3.61129 36108 ft 427 kts 279°
2026-05-07 16:56 52.88049 3.46633 36108 ft 427 kts 279°
2026-05-07 16:57 52.89173 3.36980 36102 ft 427 kts 279°
2026-05-07 16:57 52.90289 3.27329 36100 ft 426 kts 279°
2026-05-07 16:58 52.91398 3.17671 36102 ft 427 kts 279°
2026-05-07 16:58 52.92634 3.08103 36099 ft 427 kts 281°
2026-05-07 16:59 52.93899 2.98501 36103 ft 427 kts 281°
2026-05-07 16:59 52.95158 2.88890 36102 ft 426 kts 281°
2026-05-07 17:00 52.96208 2.80820 36100 ft 426 kts 281°
2026-05-07 17:00 52.97442 2.71278 36101 ft 426 kts 281°
2026-05-07 17:01 52.98678 2.61650 36105 ft 426 kts 281°
2026-05-07 17:01 52.99908 2.52009 36101 ft 426 kts 280°
2026-05-07 17:02 53.01120 2.42436 36097 ft 426 kts 280°
2026-05-07 17:02 53.02335 2.32779 36099 ft 426 kts 280°
2026-05-07 17:03 53.03541 2.23129 36095 ft 426 kts 280°
2026-05-07 17:03 53.04740 2.13476 36099 ft 426 kts 280°
2026-05-07 17:04 53.05922 2.03886 36096 ft 426 kts 280°
2026-05-07 17:04 53.07106 1.94231 36098 ft 426 kts 280°
2026-05-07 17:05 53.08282 1.84574 36096 ft 426 kts 280°
2026-05-07 17:05 53.09450 1.74908 36098 ft 426 kts 280°
2026-05-07 17:06 53.10612 1.65227 36090 ft 425 kts 280°
2026-05-07 17:06 53.11763 1.55560 36092 ft 426 kts 279°
2026-05-07 17:07 53.12902 1.45932 36088 ft 426 kts 279°
2026-05-07 17:07 53.14038 1.36249 36088 ft 426 kts 279°
2026-05-07 17:08 53.15168 1.26551 36083 ft 426 kts 279°
2026-05-07 17:08 53.16282 1.16918 36084 ft 426 kts 279°
2026-05-07 17:09 53.17396 1.07213 36081 ft 426 kts 279°
2026-05-07 17:09 53.18503 0.97496 36085 ft 426 kts 279°
2026-05-07 17:10 53.19602 0.87774 36079 ft 426 kts 279°
2026-05-07 17:10 53.20687 0.78091 36079 ft 426 kts 279°
2026-05-07 17:11 53.21772 0.68360 36077 ft 426 kts 279°
2026-05-07 17:11 53.22849 0.58618 36076 ft 427 kts 279°
2026-05-07 17:12 53.23913 0.48867 36075 ft 427 kts 279°
2026-05-07 17:12 53.24968 0.39167 36072 ft 427 kts 279°
2026-05-07 17:13 53.26023 0.29371 36063 ft 427 kts 279°
2026-05-07 17:13 53.27067 0.19610 36061 ft 427 kts 279°
2026-05-07 17:14 53.28100 0.09873 36055 ft 428 kts 279°
2026-05-07 17:14 53.29130 0.00080 36053 ft 428 kts 279°
2026-05-07 17:15 53.30152 -0.09727 36049 ft 428 kts 279°
2026-05-07 17:15 53.31166 -0.19538 36047 ft 428 kts 279°
2026-05-07 17:16 53.32167 -0.29306 36047 ft 428 kts 278°
2026-05-07 17:16 53.33168 -0.39144 36049 ft 429 kts 278°
2026-05-07 17:17 53.34161 -0.49005 36042 ft 429 kts 278°
2026-05-07 17:17 53.35147 -0.58871 36047 ft 429 kts 278°
2026-05-07 17:18 53.36120 -0.68693 36041 ft 429 kts 278°
2026-05-07 17:18 53.37091 -0.78568 36038 ft 430 kts 278°
2026-05-07 17:19 53.38054 -0.88449 36034 ft 430 kts 278°
2026-05-07 17:19 53.39008 -0.98339 36028 ft 430 kts 278°
2026-05-07 17:20 53.39949 -1.08177 36029 ft 430 kts 278°
2026-05-07 17:20 53.40890 -1.18100 36026 ft 431 kts 278°
2026-05-07 17:21 53.41819 -1.28011 36020 ft 431 kts 278°
2026-05-07 17:21 53.42742 -1.37940 36024 ft 431 kts 278°
2026-05-07 17:22 53.43657 -1.47880 36020 ft 431 kts 278°
2026-05-07 17:22 53.44565 -1.57830 36021 ft 431 kts 278°
2026-05-07 17:23 53.45460 -1.67736 36016 ft 431 kts 278°
2026-05-07 17:23 53.46353 -1.77711 36016 ft 432 kts 278°
2026-05-07 17:24 53.47236 -1.87670 36017 ft 432 kts 277°
2026-05-07 17:24 53.48111 -1.97648 36019 ft 432 kts 277°
2026-05-07 17:25 53.48978 -2.07629 36015 ft 432 kts 277°
2026-05-07 17:25 53.49831 -2.17542 36019 ft 432 kts 277°
2026-05-07 17:26 53.50682 -2.27541 36018 ft 432 kts 277°
2026-05-07 17:26 53.51525 -2.37546 36016 ft 432 kts 277°
2026-05-07 17:27 53.52360 -2.47557 36009 ft 432 kts 277°
2026-05-07 17:27 53.53175 -2.57428 35908 ft 415 kts 277°
2026-05-07 17:28 53.53568 -2.62227 35420 ft 413 kts 277°
2026-05-07 17:28 53.53952 -2.66944 34886 ft 412 kts 277°
2026-05-07 17:28 53.54338 -2.71712 34392 ft 411 kts 277°
2026-05-07 17:28 53.54721 -2.76453 33879 ft 409 kts 277°
2026-05-07 17:29 53.55099 -2.81160 33342 ft 407 kts 277°
2026-05-07 17:29 53.55474 -2.85854 32847 ft 404 kts 277°
2026-05-07 17:29 53.55843 -2.90509 32389 ft 400 kts 277°
2026-05-07 17:29 53.56209 -2.95140 31939 ft 397 kts 277°
2026-05-07 17:30 53.56310 -2.96416 31815 ft 396 kts 277°
2026-05-07 17:30 53.56668 -3.00969 31361 ft 393 kts 277°
2026-05-07 17:30 53.57021 -3.05495 30926 ft 390 kts 277°
2026-05-07 17:30 53.57367 -3.09943 30497 ft 388 kts 277°
2026-05-07 17:31 53.57714 -3.14422 30069 ft 385 kts 277°
2026-05-07 17:31 53.58056 -3.18869 29572 ft 383 kts 277°
2026-05-07 17:31 53.58395 -3.23296 29133 ft 379 kts 277°
2026-05-07 17:31 53.58729 -3.27668 28727 ft 375 kts 276°
2026-05-07 17:32 53.59058 -3.32004 28325 ft 371 kts 276°
2026-05-07 17:32 53.59382 -3.36296 27930 ft 368 kts 276°
2026-05-07 17:32 53.59697 -3.40499 27543 ft 364 kts 276°
2026-05-07 17:32 53.59910 -3.43347 27281 ft 362 kts 276°
2026-05-07 17:33 53.60323 -3.48890 26775 ft 358 kts 276°
2026-05-07 17:33 53.60630 -3.53027 26398 ft 355 kts 276°
2026-05-07 17:33 53.60934 -3.57144 26026 ft 352 kts 276°
2026-05-07 17:33 53.61235 -3.61230 25653 ft 349 kts 276°
2026-05-07 17:34 53.61533 -3.65274 25302 ft 347 kts 277°
2026-05-07 17:34 53.62087 -3.69226 24874 ft 347 kts 286°
2026-05-07 17:34 53.62757 -3.73058 24547 ft 344 kts 283°
2026-05-07 17:34 53.63315 -3.76959 24207 ft 341 kts 282°
2026-05-07 17:35 53.63873 -3.80827 23867 ft 339 kts 282°
2026-05-07 17:35 53.64431 -3.84670 23511 ft 337 kts 282°
2026-05-07 17:35 53.64987 -3.88489 23110 ft 334 kts 282°
2026-05-07 17:35 53.65541 -3.92291 22745 ft 331 kts 282°
2026-05-07 17:36 53.66087 -3.96052 22404 ft 328 kts 282°
2026-05-07 17:36 53.66626 -3.99772 22063 ft 324 kts 282°
2026-05-07 17:36 53.67158 -4.03444 21728 ft 321 kts 282°
2026-05-07 17:36 53.67684 -4.07087 21409 ft 317 kts 282°
2026-05-07 17:37 53.68196 -4.10641 21094 ft 314 kts 282°
2026-05-07 17:37 53.68708 -4.14211 20774 ft 311 kts 282°
2026-05-07 17:37 53.69214 -4.17735 20460 ft 308 kts 282°
2026-05-07 17:37 53.69715 -4.21239 20148 ft 305 kts 282°
2026-05-07 17:38 53.70209 -4.24703 19837 ft 302 kts 281°
2026-05-07 17:38 53.70697 -4.28134 19527 ft 300 kts 281°
2026-05-07 17:38 53.70982 -4.31606 19239 ft 297 kts 267°
2026-05-07 17:38 53.70809 -4.35102 18964 ft 302 kts 264°
2026-05-07 17:39 53.70698 -4.38667 18654 ft 305 kts 266°
2026-05-07 17:39 53.70619 -4.42259 18339 ft 305 kts 266°
2026-05-07 17:39 53.70544 -4.45835 17979 ft 304 kts 266°
2026-05-07 17:39 53.70472 -4.49343 17634 ft 301 kts 266°
2026-05-07 17:40 53.70462 -4.52843 17492 ft 293 kts 272°
2026-05-07 17:40 53.70653 -4.56260 17076 ft 293 kts 270°
2026-05-07 17:40 53.70467 -4.59654 16689 ft 289 kts 254°
2026-05-07 17:40 53.69961 -4.62922 16308 ft 288 kts 257°
2026-05-07 17:41 53.69789 -4.66285 15885 ft 290 kts 268°
2026-05-07 17:41 53.69817 -4.69738 15233 ft 301 kts 269°
2026-05-07 17:41 53.69839 -4.71654 14899 ft 305 kts 269°
2026-05-07 17:41 53.69877 -4.75246 14299 ft 313 kts 269°
2026-05-07 17:42 53.69913 -4.78973 13754 ft 318 kts 269°
2026-05-07 17:42 53.69941 -4.82170 13410 ft 316 kts 269°
2026-05-07 17:42 53.69965 -4.84846 13130 ft 315 kts 269°
2026-05-07 17:42 53.69995 -4.88475 12818 ft 311 kts 269°
2026-05-07 17:43 53.70024 -4.92112 12519 ft 307 kts 269°
2026-05-07 17:43 53.70051 -4.95700 12210 ft 303 kts 269°
2026-05-07 17:43 53.70076 -4.99211 11915 ft 299 kts 269°
2026-05-07 17:43 53.70097 -5.02705 11618 ft 296 kts 269°
2026-05-07 17:44 53.70117 -5.06158 11321 ft 292 kts 269°
2026-05-07 17:44 53.70133 -5.09570 11032 ft 289 kts 269°
2026-05-07 17:44 53.70146 -5.12922 10772 ft 288 kts 269°
2026-05-07 17:44 53.70155 -5.16310 10535 ft 287 kts 269°
2026-05-07 17:45 53.70085 -5.19660 10293 ft 285 kts 260°
2026-05-07 17:45 53.69295 -5.22658 10036 ft 282 kts 229°
2026-05-07 17:45 53.67677 -5.24482 9795 ft 284 kts 199°
2026-05-07 17:45 53.65709 -5.24604 9522 ft 290 kts 167°
2026-05-07 17:46 53.63899 -5.23074 9281 ft 295 kts 149°
2026-05-07 17:46 53.62775 -5.21775 9027 ft 294 kts 148°
2026-05-07 17:46 53.61031 -5.20078 8599 ft 286 kts 163°
2026-05-07 17:46 53.59118 -5.19847 8173 ft 273 kts 196°
2026-05-07 17:47 53.57523 -5.21369 7802 ft 263 kts 228°
2026-05-07 17:47 53.56695 -5.25048 7320 ft 258 kts 266°
2026-05-07 17:47 53.56712 -5.27073 7114 ft 254 kts 269°
2026-05-07 17:47 53.56768 -5.30022 6838 ft 251 kts 269°
2026-05-07 17:48 53.56777 -5.32952 6542 ft 249 kts 262°
2026-05-07 17:48 53.56487 -5.35769 6263 ft 245 kts 255°
2026-05-07 17:48 53.56097 -5.38533 6007 ft 241 kts 254°
2026-05-07 17:48 53.55717 -5.41251 5699 ft 236 kts 257°
2026-05-07 17:49 53.55635 -5.43999 5386 ft 233 kts 266°
2026-05-07 17:49 53.55357 -5.46600 5153 ft 223 kts 243°
2026-05-07 17:49 53.54602 -5.48821 4985 ft 216 kts 239°
2026-05-07 17:49 53.53941 -5.51046 4781 ft 212 kts 243°
2026-05-07 17:50 53.53332 -5.53284 4581 ft 210 kts 244°
2026-05-07 17:50 53.52752 -5.55532 4384 ft 209 kts 245°
2026-05-07 17:50 53.52196 -5.57765 4202 ft 209 kts 245°
2026-05-07 17:50 53.51650 -5.60013 4035 ft 208 kts 246°
2026-05-07 17:51 53.51110 -5.62261 3999 ft 206 kts 246°
2026-05-07 17:51 53.50580 -5.64496 3999 ft 206 kts 246°
2026-05-07 17:51 53.50170 -5.66230 4000 ft 207 kts 246°
2026-05-07 17:51 53.49642 -5.68472 4004 ft 206 kts 246°
2026-05-07 17:52 53.49118 -5.70707 3997 ft 205 kts 246°
2026-05-07 17:52 53.48601 -5.72914 4001 ft 205 kts 246°
2026-05-07 17:52 53.48071 -5.75173 4003 ft 205 kts 246°
2026-05-07 17:52 53.47554 -5.77377 4008 ft 205 kts 246°
2026-05-07 17:53 53.47029 -5.79609 4005 ft 205 kts 246°
2026-05-07 17:53 53.46507 -5.81833 3985 ft 205 kts 246°
2026-05-07 17:53 53.45983 -5.84055 4005 ft 205 kts 246°
2026-05-07 17:53 53.45455 -5.86289 3997 ft 206 kts 247°
2026-05-07 17:54 53.44929 -5.88521 3998 ft 205 kts 247°
2026-05-07 17:54 53.44403 -5.90746 3993 ft 206 kts 246°
2026-05-07 17:54 53.43877 -5.92974 3988 ft 206 kts 246°
2026-05-07 17:54 53.43352 -5.95192 3791 ft 206 kts 247°
2026-05-07 17:55 53.42834 -5.97382 3536 ft 199 kts 246°
2026-05-07 17:55 53.42328 -5.99513 3263 ft 194 kts 247°
2026-05-07 17:55 53.41835 -6.01594 2993 ft 190 kts 246°
2026-05-07 17:55 53.41352 -6.03625 2746 ft 184 kts 246°
2026-05-07 17:56 53.41031 -6.05630 2504 ft 176 kts 262°
2026-05-07 17:56 53.41065 -6.07620 2285 ft 169 kts 271°
2026-05-07 17:56 53.41180 -6.09485 2072 ft 154 kts 271°
2026-05-07 17:56 53.41278 -6.11200 1895 ft 143 kts 270°
2026-05-07 17:57 53.41367 -6.12834 1707 ft 140 kts 270°
2026-05-07 17:57 53.41425 -6.13909 1570 ft 139 kts 270°
2026-05-07 17:57 53.41542 -6.16073 1313 ft 139 kts 270°
2026-05-07 17:57 53.41629 -6.17686 1110 ft 139 kts 271°
2026-05-07 17:58 53.41716 -6.19325 871 ft 144 kts 272°
2026-05-07 17:58 53.41822 -6.20995 728 ft 148 kts 272°
2026-05-07 17:58 53.41907 -6.22735 568 ft 151 kts 272°
2026-05-07 17:58 53.41988 -6.24491 333 ft 152 kts 275°
2026-05-07 17:59 53.42089 -6.26238 227 ft 138 kts 275°
2026-05-07 17:59 53.42154 -6.27409 232 ft 67 kts 275°
2026-05-07 17:59 53.42199 -6.27840 235 ft 31 kts 287°
2026-05-07 17:59 53.42266 -6.28041 231 ft 12 kts 306°
2026-05-07 18:00 53.42340 -6.28112 228 ft 15 kts 25°
2026-05-07 18:00 53.42358 -6.27954 228 ft 16 kts 95°
2026-05-07 18:00 53.42348 -6.27760 228 ft 18 kts 95°
2026-05-07 18:00 53.42335 -6.27541 227 ft 20 kts 96°
2026-05-07 18:01 53.42320 -6.27299 227 ft 22 kts 96°
2026-05-07 18:01 53.42307 -6.27035 229 ft 24 kts 95°
2026-05-07 18:01 53.42293 -6.26751 227 ft 25 kts 95°
2026-05-07 18:01 53.42277 -6.26456 229 ft 26 kts 95°
2026-05-07 18:02 53.42307 -6.25898 227 ft 21 kts 47°
2026-05-07 18:02 53.42409 -6.25719 227 ft 22 kts 46°
2026-05-07 18:02 53.42522 -6.25523 226 ft 25 kts 45°
2026-05-07 18:03 53.42635 -6.25332 224 ft 16 kts 45°
2026-05-07 18:03 53.42713 -6.25205 227 ft 13 kts 27°
2026-05-07 18:03 53.42800 -6.25246 227 ft 14 kts 338°
2026-05-07 18:03 53.42896 -6.25316 227 ft 16 kts 336°
2026-05-07 18:04 53.42966 -6.25262 227 ft 6 kts 70°
2026-05-07 18:04 53.42963 -6.25208 227 ft 6 kts 97°
2026-05-07 18:04 53.42958 -6.25114 227 ft 10 kts 95°
2026-05-07 18:04 53.42950 -6.24971 227 ft 14 kts 94°
2026-05-07 18:05 53.42942 -6.24800 227 ft 13 kts 95°
2026-05-07 18:05 53.42958 -6.24693 227 ft 8 kts 31°
2026-05-07 18:05 53.42994 -6.24683 227 ft 1 kts